Lid_Strength_Index
-1 -1 -1 2 8 8 12 11 8 8 8 5 5 6 7 6 8 10 1 -0 -0 -0 -1 -1 -1 -1 -1 -1 -1 -1 -2 -2 -2 -2 -2 -1 -2 -2 -1 -1 -1 -1 -1 -1 -1 -1 -1 -1 -1
-1 0 1 4 9 12 12 9 9 7 6 5 5 5 6 7 4 3 2 -0 -1 -1 -1 -1 -1 -2 -1 -1 -2 -1 -1 -2 -2 -2 -2 -2 -1 -1 -1 -1 -1 -1 -1 -1 -1 -1 -1 -1 -1
-0 0 4 6 8 12 12 9 8 6 5 5 6 4 5 6 3 2 0 -0 -1 -1 -1 -1 -1 -2 -1 -1 -1 -1 -1 -1 -2 -2 -2 -2 -2 -2 -2 -1 -1 -1 -1 -1 -1 -1 -1 -1 -1
1 2 4 9 11 10 9 7 6 7 5 5 5 7 4 2 3 1 -0 -0 -0 -1 -1 -1 -1 -1 -1 -1 -1 -1 -1 -1 -1 -2 -2 -2 -2 0 -1 -1 -1 -1 -1 -1 -1 -1 -1 -1 -1
1 3 8 10 10 9 7 6 6 7 6 6 5 7 6 2 1 0 0 -0 -0 -0 -1 -1 -1 -2 -1 -1 -1 -1 -1 -1 -2 -2 -2 -2 -2 -1 -1 -1 -1 -1 -1 -1 -1 -1 -1 -1 -1
4 4 8 11 10 8 7 5 6 6 6 6 6 6 5 1 1 1 -0 -0 -1 -0 -1 -1 -1 -1 -1 -2 -1 -1 -1 -2 -2 -2 -2 -2 -2 -2 -2 -1 -1 -1 -1 -1 -1 -1 -1 -1 -1
6 6 10 10 10 9 8 5 6 6 6 6 4 7 5 3 1 0 -0 -0 -1 -1 -1 -1 -1 -1 -1 -1 -1 -1 -1 -2 -2 -2 -2 -2 -1 -1 -1 -1 -1 -1 -1 -1 -1 -1 -1 -1 -1
3 6 9 9 10 10 6 6 5 6 6 3 3 7 6 3 1 0 0 -0 -0 -0 -1 -1 -2 -2 -2 -2 -1 -1 -1 -1 -1 -2 -1 -1 -2 -1 -1 -1 -1 -1 -1 -1 -1 -1 -1 -1 -1
3 7 10 9 9 8 6 7 5 4 5 4 4 4 3 1 1 1 1 1 1 0 -0 -1 -1 -1 -2 -2 -2 -1 -1 -1 -1 -2 -1 -1 -2 -2 -2 -2 -1 -1 -1 -1 -1 -1 -1 -1 -1
5 8 9 6 6 7 6 6 6 6 6 6 5 3 2 2 2 2 2 2 2 1 0 -1 -1 -1 -1 -1 -2 -2 -2 -1 -2 -2 -2 -1 -2 -2 -2 -1 -1 -1 -1 -1 -1 -1 -1 -1 -1
5 8 6 6 5 5 6 6 5 6 7 5 6 4 3 3 2 2 2 2 1 1 0 -0 -1 -1 -1 -1 -2 -2 -2 -1 -1 -2 -3 -2 -1 -2 -2 -2 -1 -2 -2 -2 -1 -2 -2 -2 -2
7 5 6 5 5 6 6 5 6 5 5 4 3 3 3 3 3 2 2 2 1 1 0 -0 -1 -1 -1 -1 -1 -1 -1 -1 -1 -1 -2 -1 -1 -1 -2 -1 -2 -1 -2 -2 -1 -2 -2 -2 -2
6 5 5 5 5 5 5 6 6 6 4 3 3 3 3 3 2 2 1 1 1 1 0 -0 -1 -1 -1 -1 -1 -1 -1 -1 -1 -1 -1 -1 -1 -1 -1 -1 -2 -1 -2 -1 -1 -1 -1 -1 -1
5 5 5 5 5 5 6 6 6 5 3 4 4 3 3 3 2 2 2 2 1 1 0 -0 -0 -1 -1 -1 -1 -1 -1 -1 -1 -1 -1 -1 -1 -1 -2 -1 -1 -2 -1 -1 -1 -1 -2 -1 -1
5 6 5 5 5 6 5 8 8 5 4 5 4 4 3 3 2 2 2 2 1 1 0 0 -0 -1 -1 -1 -1 -1 -1 -1 -1 -1 -2 -1 -1 -1 -1 -1 -0 -1 -1 -2 -1 -1 -1 -1 -1
6 6 8 5 5 5 6 9 6 4 5 5 4 4 4 3 2 2 1 1 1 0 0 -0 -0 -0 -1 -1 -1 -1 -1 -1 -1 -1 -1 -2 -1 -1 -1 -1 -0 -1 -1 -1 -1 -1 -0 -0 -0
7 9 8 7 5 6 7 8 6 5 5 5 5 4 4 3 3 2 1 1 1 0 0 0 -0 -0 -0 -1 -1 -1 -2 -2 -1 -1 -1 -2 -1 -1 -1 -1 -1 -2 -1 -1 -1 -0 -1 0 -0
9 9 7 8 6 5 6 7 5 4 5 5 5 4 4 4 3 2 1 1 0 0 -0 -0 -0 -1 -1 -1 -1 -1 -1 -1 -3 -2 -2 -2 -1 -1 -1 -2 -2 -1 -1 -0 -1 -0 -1 -0 0
7 7 8 6 5 6 6 6 5 4 5 5 5 5 4 4 2 2 1 1 1 0 0 0 0 -0 -0 0 1 1 1 0 -1 -2 -2 -1 -1 -2 -1 -2 -1 -1 -0 -1 -1 -0 0 0 -0
7 8 8 6 5 6 6 7 5 5 4 5 5 5 4 4 3 2 2 1 1 1 1 0 0 -0 0 0 -0 -0 -0 -0 -1 -2 -1 -1 -1 -2 -1 -1 -1 -1 -0 -1 -0 -0 1 0 -0
7 8 7 8 6 5 7 7 6 5 5 5 4 4 4 4 4 3 2 2 1 1 1 1 0 0 -0 -1 -0 -0 -1 -1 0 -0 -0 -1 -1 -1 -1 -1 -1 -1 -1 -1 -1 -0 0 1 0
8 6 6 7 8 9 6 11 7 6 5 5 4 4 4 4 3 3 2 2 2 1 1 0 0 0 -0 -1 -0 0 1 2 1 0 -0 -1 -1 -1 -1 -1 -1 -1 -1 -1 -1 -0 -0 0 2
7 6 6 7 8 8 8 9 8 6 6 5 5 4 4 3 3 3 2 2 1 1 1 1 0 0 -0 -0 -1 1 1 0 0 0 -0 -1 -1 -1 -1 -1 -1 -1 -1 -1 -1 -1 -0 -0 0
5 6 6 6 7 10 8 9 9 7 6 5 5 4 4 4 3 3 2 2 1 1 1 1 1 0 0 -0 -0 0 1 1 1 0 1 0 -0 -0 -1 -1 -1 -1 -1 -0 -1 -1 -1 -1 -1
6 7 10 11 11 11 8 9 8 6 5 5 5 5 4 3 3 3 3 2 2 2 1 1 1 1 0 0 0 0 0 0 0 0 1 0 0 0 -0 -1 -0 -1 -1 -1 -1 -1 -1 -0 -0
7 7 10 14 13 11 8 10 8 5 5 4 4 4 4 4 3 3 2 2 2 2 1 1 1 2 1 0 0 -0 -0 0 0 0 0 0 0 -0 -1 -1 -1 -1 -1 -1 -1 -0 -0 -1 -0
7 8 6 9 8 10 9 8 6 5 5 4 4 4 5 4 3 3 2 2 2 2 1 1 1 1 1 0 0 0 0 -0 -0 -1 -1 -0 -1 -0 -1 -1 -1 -1 -1 -1 -1 -0 -0 -1 -1
6 5 9 8 13 13 10 10 9 7 6 5 4 5 4 4 3 3 3 2 2 1 1 1 1 1 1 0 0 0 0 -0 -0 -0 -0 -1 -1 -1 -1 -1 -1 -1 -1 -1 -1 -1 -1 -0 -0
7 8 7 7 8 12 12 10 6 6 5 5 4 4 4 4 3 3 3 2 2 1 1 1 1 1 1 1 0 0 0 0 -0 -0 -0 -0 -1 -1 -1 -1 -1 -1 -1 -1 -1 -1 -1 -0 -0
6 7 7 10 10 9 10 10 5 5 5 5 5 4 4 3 3 3 3 2 2 2 1 1 1 1 1 0 0 0 0 -0 0 0 -0 -1 -0 -1 -1 -1 -1 -1 -1 -1 -0 -0 -0 -0 0